Year,Month,Day,Hour,Minute,Value (Times are PST for temperature in C)
2013,04,15,00,00,6.30
2013,04,15,00,01,6.30
2013,04,15,00,02,6.30
2013,04,15,00,03,6.30
2013,04,15,00,04,6.30
2013,04,15,00,05,6.30
2013,04,15,00,06,6.30
2013,04,15,00,07,6.30
2013,04,15,00,08,6.30
2013,04,15,00,09,6.30
2013,04,15,00,10,6.30
2013,04,15,00,11,6.20
2013,04,15,00,12,6.20
2013,04,15,00,13,6.20
2013,04,15,00,14,6.20
2013,04,15,00,15,6.20
2013,04,15,00,16,6.20
2013,04,15,00,17,6.20
2013,04,15,00,18,6.20
2013,04,15,00,19,6.20
2013,04,15,00,20,6.20
2013,04,15,00,21,6.20
2013,04,15,00,22,6.20
2013,04,15,00,23,6.20
2013,04,15,00,24,6.20
2013,04,15,00,25,6.20
2013,04,15,00,26,6.20
2013,04,15,00,27,6.20
2013,04,15,00,28,6.10
2013,04,15,00,29,6.10
2013,04,15,00,30,6.10
2013,04,15,00,31,6.10
2013,04,15,00,32,6.10
2013,04,15,00,33,6.10
2013,04,15,00,34,6.10
2013,04,15,00,35,6.10
2013,04,15,00,36,6.10
2013,04,15,00,37,6.10
2013,04,15,00,38,6.10
2013,04,15,00,39,6.10
2013,04,15,00,40,6.10
2013,04,15,00,41,6.10
2013,04,15,00,42,6.10
2013,04,15,00,43,6.10
2013,04,15,00,44,6.10
2013,04,15,00,45,6.10
2013,04,15,00,46,6.10
2013,04,15,00,47,6.00
2013,04,15,00,48,6.00
2013,04,15,00,49,6.00
2013,04,15,00,50,5.90
2013,04,15,00,51,5.90
2013,04,15,00,52,5.90
2013,04,15,00,53,5.80
2013,04,15,00,54,5.70
2013,04,15,00,55,5.70
2013,04,15,00,56,5.70
2013,04,15,00,57,5.60
2013,04,15,00,58,5.60
2013,04,15,00,59,5.50
2013,04,15,01,00,5.50
2013,04,15,01,01,5.40
2013,04,15,01,02,5.40
2013,04,15,01,03,5.40
2013,04,15,01,04,5.40
2013,04,15,01,05,5.40
2013,04,15,01,06,5.40
2013,04,15,01,07,5.40
2013,04,15,01,08,5.30
2013,04,15,01,09,5.30
2013,04,15,01,10,5.30
2013,04,15,01,11,5.30
2013,04,15,01,12,5.30
2013,04,15,01,13,5.30
2013,04,15,01,14,5.30
2013,04,15,01,15,5.20
2013,04,15,01,16,5.20
2013,04,15,01,17,5.10
2013,04,15,01,18,5.10
2013,04,15,01,19,5.10
2013,04,15,01,20,5.10
2013,04,15,01,21,5.10
2013,04,15,01,22,4.90
2013,04,15,01,23,4.90
2013,04,15,01,24,4.90
2013,04,15,01,25,4.90
2013,04,15,01,26,4.80
2013,04,15,01,27,4.80
2013,04,15,01,28,4.70
2013,04,15,01,29,4.60
2013,04,15,01,30,4.60
2013,04,15,01,31,4.60
2013,04,15,01,32,4.60
2013,04,15,01,33,4.50
2013,04,15,01,34,4.50
2013,04,15,01,35,4.50
2013,04,15,01,36,4.50
2013,04,15,01,37,4.40
2013,04,15,01,38,4.40
2013,04,15,01,39,4.40
2013,04,15,01,40,4.40
2013,04,15,01,41,4.30
2013,04,15,01,42,4.30
2013,04,15,01,43,4.30
2013,04,15,01,44,4.30
2013,04,15,01,45,4.20
2013,04,15,01,46,4.20
2013,04,15,01,47,4.20
2013,04,15,01,48,4.20
2013,04,15,01,49,4.20
2013,04,15,01,50,4.20
2013,04,15,01,51,4.20
2013,04,15,01,52,4.20
2013,04,15,01,53,4.20
2013,04,15,01,54,4.20
2013,04,15,01,55,4.20
2013,04,15,01,56,4.20
2013,04,15,01,57,4.20
2013,04,15,01,58,4.20
2013,04,15,01,59,4.20
2013,04,15,02,00,4.20
2013,04,15,02,01,4.20
2013,04,15,02,02,4.20
2013,04,15,02,03,4.20
2013,04,15,02,04,4.10
2013,04,15,02,05,4.10
2013,04,15,02,06,4.10
2013,04,15,02,07,4.00
2013,04,15,02,08,4.00
2013,04,15,02,09,3.90
2013,04,15,02,10,3.90
2013,04,15,02,11,3.90
2013,04,15,02,12,3.80
2013,04,15,02,13,3.80
2013,04,15,02,14,3.80
2013,04,15,02,15,3.80
2013,04,15,02,16,3.80
2013,04,15,02,17,3.80
2013,04,15,02,18,3.80
2013,04,15,02,19,3.80
2013,04,15,02,20,3.80
2013,04,15,02,21,3.80
2013,04,15,02,22,3.70
2013,04,15,02,23,3.70
2013,04,15,02,24,3.70
2013,04,15,02,25,3.70
2013,04,15,02,26,3.70
2013,04,15,02,27,3.70
2013,04,15,02,28,3.70
2013,04,15,02,29,3.60
2013,04,15,02,30,3.60
2013,04,15,02,31,3.60
2013,04,15,02,32,3.60
2013,04,15,02,33,3.60
2013,04,15,02,34,3.50
2013,04,15,02,35,3.50
2013,04,15,02,36,3.50
2013,04,15,02,37,3.50
2013,04,15,02,38,3.40
2013,04,15,02,39,3.40
2013,04,15,02,40,3.40
2013,04,15,02,41,3.40
2013,04,15,02,42,3.40
2013,04,15,02,43,3.40
2013,04,15,02,44,3.40
2013,04,15,02,45,3.30
2013,04,15,02,46,3.40
2013,04,15,02,47,3.40
2013,04,15,02,48,3.40
2013,04,15,02,49,3.40
2013,04,15,02,50,3.40
2013,04,15,02,51,3.40
2013,04,15,02,52,3.40
2013,04,15,02,53,3.40
2013,04,15,02,54,3.30
2013,04,15,02,55,3.30
2013,04,15,02,56,3.30
2013,04,15,02,57,3.30
2013,04,15,02,58,3.30
2013,04,15,02,59,3.30
2013,04,15,03,00,3.30
2013,04,15,03,01,3.30
2013,04,15,03,02,3.30
2013,04,15,03,03,3.30
2013,04,15,03,04,3.30
2013,04,15,03,05,3.30
2013,04,15,03,06,3.30
2013,04,15,03,07,3.30
2013,04,15,03,08,3.30
2013,04,15,03,09,3.30
2013,04,15,03,10,3.30
2013,04,15,03,11,3.30
2013,04,15,03,12,3.30
2013,04,15,03,13,3.30
2013,04,15,03,14,3.40
2013,04,15,03,15,3.40
2013,04,15,03,16,3.40
2013,04,15,03,17,3.40
2013,04,15,03,18,3.40
2013,04,15,03,19,3.50
2013,04,15,03,20,3.50
2013,04,15,03,21,3.50
2013,04,15,03,22,3.40
2013,04,15,03,23,3.40
2013,04,15,03,24,3.40
2013,04,15,03,25,3.40
2013,04,15,03,26,3.40
2013,04,15,03,27,3.30
2013,04,15,03,28,3.30
2013,04,15,03,29,3.30
2013,04,15,03,30,3.30
2013,04,15,03,31,3.30
2013,04,15,03,32,3.40
2013,04,15,03,33,3.40
2013,04,15,03,34,3.40
2013,04,15,03,35,3.40
2013,04,15,03,36,3.40
2013,04,15,03,37,3.40
2013,04,15,03,38,3.40
2013,04,15,03,39,3.40
2013,04,15,03,40,3.40
2013,04,15,03,41,3.40
2013,04,15,03,42,3.40
2013,04,15,03,43,3.50
2013,04,15,03,44,3.50
2013,04,15,03,45,3.50
2013,04,15,03,46,3.50
2013,04,15,03,47,3.50
2013,04,15,03,48,3.50
2013,04,15,03,49,3.50
2013,04,15,03,50,3.50
2013,04,15,03,51,3.50
2013,04,15,03,52,3.50
2013,04,15,03,53,3.50
2013,04,15,03,54,3.50
2013,04,15,03,55,3.50
2013,04,15,03,56,3.50
2013,04,15,03,57,3.50
2013,04,15,03,58,3.50
2013,04,15,03,59,3.50
2013,04,15,04,00,3.50
2013,04,15,04,01,3.50
2013,04,15,04,02,3.50
2013,04,15,04,03,3.50
2013,04,15,04,04,3.40
2013,04,15,04,05,3.40
2013,04,15,04,06,3.40
2013,04,15,04,07,3.40
2013,04,15,04,08,3.30
2013,04,15,04,09,3.30
2013,04,15,04,10,3.40
2013,04,15,04,11,3.40
2013,04,15,04,12,3.40
2013,04,15,04,13,3.40
2013,04,15,04,14,3.40
2013,04,15,04,15,3.40
2013,04,15,04,16,3.40
2013,04,15,04,17,3.40
2013,04,15,04,18,3.40
2013,04,15,04,19,3.40
2013,04,15,04,20,3.50
2013,04,15,04,21,3.50
2013,04,15,04,22,3.50
2013,04,15,04,23,3.50
2013,04,15,04,24,3.50
2013,04,15,04,25,3.50
2013,04,15,04,26,3.50
2013,04,15,04,27,3.50
2013,04,15,04,28,3.50
2013,04,15,04,29,3.50
2013,04,15,04,30,3.50
2013,04,15,04,31,3.50
2013,04,15,04,32,3.50
2013,04,15,04,33,3.50
2013,04,15,04,34,3.50
2013,04,15,04,35,3.50
2013,04,15,04,36,3.50
2013,04,15,04,37,3.50
2013,04,15,04,38,3.40
2013,04,15,04,39,3.40
2013,04,15,04,40,3.40
2013,04,15,04,41,3.40
2013,04,15,04,42,3.40
2013,04,15,04,43,3.40
2013,04,15,04,44,3.30
2013,04,15,04,45,3.30
2013,04,15,04,46,3.30
2013,04,15,04,47,3.30
2013,04,15,04,48,3.30
2013,04,15,04,49,3.30
2013,04,15,04,50,3.30
2013,04,15,04,51,3.30
2013,04,15,04,52,3.30
2013,04,15,04,53,3.30
2013,04,15,04,54,3.30
2013,04,15,04,55,3.30
2013,04,15,04,56,3.30
2013,04,15,04,57,3.30
2013,04,15,04,58,3.30
2013,04,15,04,59,3.30
2013,04,15,05,00,3.30
2013,04,15,05,01,3.30
2013,04,15,05,02,3.30
2013,04,15,05,03,3.30
2013,04,15,05,04,3.30
2013,04,15,05,05,3.30
2013,04,15,05,06,3.30
2013,04,15,05,07,3.30
2013,04,15,05,08,3.30
2013,04,15,05,09,3.30
2013,04,15,05,10,3.30
2013,04,15,05,11,3.30
2013,04,15,05,12,3.30
2013,04,15,05,13,3.30
2013,04,15,05,14,3.30
2013,04,15,05,15,3.30
2013,04,15,05,16,3.30
2013,04,15,05,17,3.30
2013,04,15,05,18,3.30
2013,04,15,05,19,3.30
2013,04,15,05,20,3.30
2013,04,15,05,21,3.30
2013,04,15,05,22,3.30
2013,04,15,05,23,3.30
2013,04,15,05,24,3.30
2013,04,15,05,25,3.30
2013,04,15,05,26,3.30
2013,04,15,05,27,3.30
2013,04,15,05,28,3.30
2013,04,15,05,29,3.30
2013,04,15,05,30,3.30
2013,04,15,05,31,3.30
2013,04,15,05,32,3.30
2013,04,15,05,33,3.30
2013,04,15,05,34,3.30
2013,04,15,05,35,3.30
2013,04,15,05,36,3.30
2013,04,15,05,37,3.40
2013,04,15,05,38,3.40
2013,04,15,05,39,3.40
2013,04,15,05,40,3.50
2013,04,15,05,41,3.50
2013,04,15,05,42,3.50
2013,04,15,05,43,3.60
2013,04,15,05,44,3.60
2013,04,15,05,45,3.60
2013,04,15,05,46,3.60
2013,04,15,05,47,3.70
2013,04,15,05,48,3.70
2013,04,15,05,49,3.70
2013,04,15,05,50,3.70
2013,04,15,05,51,3.70
2013,04,15,05,52,3.80
2013,04,15,05,53,3.80
2013,04,15,05,54,3.80
2013,04,15,05,55,3.80
2013,04,15,05,56,3.80
2013,04,15,05,57,3.80
2013,04,15,05,58,3.80
2013,04,15,05,59,3.80
2013,04,15,06,00,3.80
2013,04,15,06,01,3.90
2013,04,15,06,02,3.90
2013,04,15,06,03,3.90
2013,04,15,06,04,3.90
2013,04,15,06,05,4.00
2013,04,15,06,06,4.00
2013,04,15,06,07,4.00
2013,04,15,06,08,4.00
2013,04,15,06,09,4.10
2013,04,15,06,10,4.10
2013,04,15,06,11,4.10
2013,04,15,06,12,4.10
2013,04,15,06,13,4.10
2013,04,15,06,14,4.10
2013,04,15,06,15,4.10
2013,04,15,06,16,4.10
2013,04,15,06,17,4.10
2013,04,15,06,18,4.20
2013,04,15,06,19,4.20
2013,04,15,06,20,4.20
2013,04,15,06,21,4.20
2013,04,15,06,22,4.20
2013,04,15,06,23,4.20
2013,04,15,06,24,4.20
2013,04,15,06,25,4.20
2013,04,15,06,26,4.20
2013,04,15,06,27,4.20
2013,04,15,06,28,4.20
2013,04,15,06,29,4.20
2013,04,15,06,30,4.20
2013,04,15,06,31,4.30
2013,04,15,06,32,4.30
2013,04,15,06,33,4.30
2013,04,15,06,34,4.40
2013,04,15,06,35,4.40
2013,04,15,06,36,4.40
2013,04,15,06,37,4.40
2013,04,15,06,38,4.50
2013,04,15,06,39,4.50
2013,04,15,06,40,4.50
2013,04,15,06,41,4.50
2013,04,15,06,42,4.60
2013,04,15,06,43,4.60
2013,04,15,06,44,4.60
2013,04,15,06,45,4.70
2013,04,15,06,46,4.70
2013,04,15,06,47,4.70
2013,04,15,06,48,4.80
2013,04,15,06,49,4.90
2013,04,15,06,50,4.90
2013,04,15,06,51,5.00
2013,04,15,06,52,5.10
2013,04,15,06,53,5.10
2013,04,15,06,54,5.10
2013,04,15,06,55,5.10
2013,04,15,06,56,5.10
2013,04,15,06,57,5.10
2013,04,15,06,58,5.10
2013,04,15,06,59,5.10
2013,04,15,07,00,5.10
2013,04,15,07,01,5.10
2013,04,15,07,02,5.10
2013,04,15,07,03,5.10
2013,04,15,07,04,5.10
2013,04,15,07,05,5.10
2013,04,15,07,06,5.10
2013,04,15,07,07,5.10
2013,04,15,07,08,5.10
2013,04,15,07,09,5.10
2013,04,15,07,10,5.10
2013,04,15,07,11,5.10
2013,04,15,07,12,5.10
2013,04,15,07,13,5.10
2013,04,15,07,14,5.00
2013,04,15,07,15,4.90
2013,04,15,07,16,4.90
2013,04,15,07,17,4.90
2013,04,15,07,18,4.90
2013,04,15,07,19,4.90
2013,04,15,07,20,4.90
2013,04,15,07,21,4.90
2013,04,15,07,22,4.80
2013,04,15,07,23,4.80
2013,04,15,07,24,4.80
2013,04,15,07,25,4.80
2013,04,15,07,26,4.80
2013,04,15,07,27,4.80
2013,04,15,07,28,4.80
2013,04,15,07,29,4.80
2013,04,15,07,30,4.80
2013,04,15,07,31,4.80
2013,04,15,07,32,4.80
2013,04,15,07,33,4.80
2013,04,15,07,34,4.80
2013,04,15,07,35,4.80
2013,04,15,07,36,4.80
2013,04,15,07,37,4.80
2013,04,15,07,38,4.80
2013,04,15,07,39,4.80
2013,04,15,07,40,4.80
2013,04,15,07,41,4.80
2013,04,15,07,42,4.80
2013,04,15,07,43,4.80
2013,04,15,07,44,4.80
2013,04,15,07,45,4.80
2013,04,15,07,46,4.80
2013,04,15,07,47,4.80
2013,04,15,07,48,4.90
2013,04,15,07,49,4.90
2013,04,15,07,50,4.90
2013,04,15,07,51,4.90
2013,04,15,07,52,4.90
2013,04,15,07,53,4.90
2013,04,15,07,54,4.90
2013,04,15,07,55,4.90
2013,04,15,07,56,4.90
2013,04,15,07,57,4.90
2013,04,15,07,58,4.90
2013,04,15,07,59,4.90
2013,04,15,08,00,4.90
2013,04,15,08,01,4.90
2013,04,15,08,02,4.90
2013,04,15,08,03,4.90
2013,04,15,08,04,4.90
2013,04,15,08,05,4.90
2013,04,15,08,06,4.90
2013,04,15,08,07,4.90
2013,04,15,08,08,4.90
2013,04,15,08,09,4.90
2013,04,15,08,10,4.90
2013,04,15,08,11,4.90
2013,04,15,08,12,5.10
2013,04,15,08,13,5.10
2013,04,15,08,14,5.10
2013,04,15,08,15,5.10
2013,04,15,08,16,5.10
2013,04,15,08,17,5.10
2013,04,15,08,18,5.10
2013,04,15,08,19,5.10
2013,04,15,08,20,5.10
2013,04,15,08,21,5.10
2013,04,15,08,22,5.10
2013,04,15,08,23,5.10
2013,04,15,08,24,5.10
2013,04,15,08,25,5.10
2013,04,15,08,26,5.10
2013,04,15,08,27,5.10
2013,04,15,08,28,5.10
2013,04,15,08,29,5.10
2013,04,15,08,30,5.10
2013,04,15,08,31,5.10
2013,04,15,08,32,5.10
2013,04,15,08,33,5.10
2013,04,15,08,34,5.10
2013,04,15,08,35,5.10
2013,04,15,08,36,5.10
2013,04,15,08,37,5.10
2013,04,15,08,38,5.10
2013,04,15,08,39,5.10
2013,04,15,08,40,5.10
2013,04,15,08,41,5.10
2013,04,15,08,42,5.10
2013,04,15,08,43,5.10
2013,04,15,08,44,5.10
2013,04,15,08,45,5.10
2013,04,15,08,46,5.10
2013,04,15,08,47,5.10
2013,04,15,08,48,5.10
2013,04,15,08,49,5.10
2013,04,15,08,50,5.10
2013,04,15,08,51,5.10
2013,04,15,08,52,5.10
2013,04,15,08,53,5.10
2013,04,15,08,54,5.10
2013,04,15,08,55,5.10
2013,04,15,08,56,5.10
2013,04,15,08,57,5.10
2013,04,15,08,58,5.10
2013,04,15,08,59,5.10
2013,04,15,09,00,5.10
2013,04,15,09,01,5.10
2013,04,15,09,02,5.20
2013,04,15,09,03,5.20
2013,04,15,09,04,5.20
2013,04,15,09,05,5.20
2013,04,15,09,06,5.10
2013,04,15,09,07,5.10
2013,04,15,09,08,5.10
2013,04,15,09,09,5.20
2013,04,15,09,10,5.20
2013,04,15,09,11,5.20
2013,04,15,09,12,5.20
2013,04,15,09,13,5.20
2013,04,15,09,14,5.20
2013,04,15,09,15,5.30
2013,04,15,09,16,5.30
2013,04,15,09,17,5.30
2013,04,15,09,18,5.30
2013,04,15,09,19,5.30
2013,04,15,09,20,5.30
2013,04,15,09,21,5.30
2013,04,15,09,22,5.30
2013,04,15,09,23,5.30
2013,04,15,09,24,5.30
2013,04,15,09,25,5.40
2013,04,15,09,26,5.40
2013,04,15,09,27,5.40
2013,04,15,09,28,5.50
2013,04,15,09,29,5.50
2013,04,15,09,30,5.50
2013,04,15,09,31,5.50
2013,04,15,09,32,5.50
2013,04,15,09,33,5.50
2013,04,15,09,34,5.60
2013,04,15,09,35,5.60
2013,04,15,09,36,5.60
2013,04,15,09,37,5.50
2013,04,15,09,38,5.50
2013,04,15,09,39,5.50
2013,04,15,09,40,5.60
2013,04,15,09,41,5.60
2013,04,15,09,42,5.70
2013,04,15,09,43,5.70
2013,04,15,09,44,5.70
2013,04,15,09,45,5.70
2013,04,15,09,46,5.80
2013,04,15,09,47,5.90
2013,04,15,09,48,5.90
2013,04,15,09,49,5.90
2013,04,15,09,50,5.80
2013,04,15,09,51,5.80
2013,04,15,09,52,5.70
2013,04,15,09,53,5.70
2013,04,15,09,54,5.70
2013,04,15,09,55,5.70
2013,04,15,09,56,5.70
2013,04,15,09,57,5.70
2013,04,15,09,58,5.70
2013,04,15,09,59,5.70
2013,04,15,10,00,5.70
2013,04,15,10,01,5.90
2013,04,15,10,02,5.90
2013,04,15,10,03,6.00
2013,04,15,10,04,6.20
2013,04,15,10,05,6.20
2013,04,15,10,06,6.30
2013,04,15,10,07,6.40
2013,04,15,10,08,6.40
2013,04,15,10,09,6.40
2013,04,15,10,10,6.50
2013,04,15,10,11,6.50
2013,04,15,10,12,6.40
2013,04,15,10,13,6.40
2013,04,15,10,14,6.40
2013,04,15,10,15,6.40
2013,04,15,10,16,6.40
2013,04,15,10,17,6.30
2013,04,15,10,18,6.40
2013,04,15,10,19,6.40
2013,04,15,10,20,6.40
2013,04,15,10,21,6.50
2013,04,15,10,22,6.60
2013,04,15,10,23,6.60
2013,04,15,10,24,6.50
2013,04,15,10,25,6.40
2013,04,15,10,26,6.40
2013,04,15,10,27,6.40
2013,04,15,10,28,6.40
2013,04,15,10,29,6.30
2013,04,15,10,30,6.20
2013,04,15,10,31,6.20
2013,04,15,10,32,6.20
2013,04,15,10,33,6.30
2013,04,15,10,34,6.40
2013,04,15,10,35,6.30
2013,04,15,10,36,6.40
2013,04,15,10,37,6.40
2013,04,15,10,38,6.50
2013,04,15,10,39,6.60
2013,04,15,10,40,6.60
2013,04,15,10,41,6.40
2013,04,15,10,42,6.40
2013,04,15,10,43,6.30
2013,04,15,10,44,6.30
2013,04,15,10,45,6.40
2013,04,15,10,46,6.40
2013,04,15,10,47,6.50
2013,04,15,10,48,6.60
2013,04,15,10,49,6.60
2013,04,15,10,50,6.60
2013,04,15,10,51,6.60
2013,04,15,10,52,6.60
2013,04,15,10,53,6.70
2013,04,15,10,54,6.80
2013,04,15,10,55,6.80
2013,04,15,10,56,6.80
2013,04,15,10,57,6.80
2013,04,15,10,58,6.80
2013,04,15,10,59,6.90
2013,04,15,11,00,6.90
2013,04,15,11,01,7.00
2013,04,15,11,02,7.10
2013,04,15,11,03,7.10
2013,04,15,11,04,7.10
2013,04,15,11,05,7.20
2013,04,15,11,06,7.30
2013,04,15,11,07,7.40
2013,04,15,11,08,7.40
2013,04,15,11,09,7.40
2013,04,15,11,10,7.30
2013,04,15,11,11,7.30
2013,04,15,11,12,7.20
2013,04,15,11,13,7.20
2013,04,15,11,14,7.30
2013,04,15,11,15,7.20
2013,04,15,11,16,7.20
2013,04,15,11,17,7.20
2013,04,15,11,18,7.20
2013,04,15,11,19,7.20
2013,04,15,11,20,7.30
2013,04,15,11,21,7.30
2013,04,15,11,22,7.30
2013,04,15,11,23,7.30
2013,04,15,11,24,7.30
2013,04,15,11,25,7.30
2013,04,15,11,26,7.30
2013,04,15,11,27,7.40
2013,04,15,11,28,7.50
2013,04,15,11,29,7.50
2013,04,15,11,30,7.50
2013,04,15,11,31,7.60
2013,04,15,11,32,7.70
2013,04,15,11,33,7.80
2013,04,15,11,34,7.80
2013,04,15,11,35,7.80
2013,04,15,11,36,7.80
2013,04,15,11,37,7.90
2013,04,15,11,38,8.00
2013,04,15,11,39,8.00
2013,04,15,11,40,8.10
2013,04,15,11,41,8.10
2013,04,15,11,42,8.00
2013,04,15,11,43,8.00
2013,04,15,11,44,8.00
2013,04,15,11,45,8.10
2013,04,15,11,46,8.10
2013,04,15,11,47,8.20
2013,04,15,11,48,8.20
2013,04,15,11,49,8.10
2013,04,15,11,50,8.00
2013,04,15,11,51,8.00
2013,04,15,11,52,8.00
2013,04,15,11,53,7.90
2013,04,15,11,54,7.80
2013,04,15,11,55,7.80
2013,04,15,11,56,7.80
2013,04,15,11,57,7.90
2013,04,15,11,58,7.90
2013,04,15,11,59,7.90
2013,04,15,12,00,8.00
2013,04,15,12,01,8.00
2013,04,15,12,02,8.00
2013,04,15,12,03,8.10
2013,04,15,12,04,8.10
2013,04,15,12,05,8.20
2013,04,15,12,06,8.20
2013,04,15,12,07,8.30
2013,04,15,12,08,8.40
2013,04,15,12,09,8.50
2013,04,15,12,10,8.50
2013,04,15,12,11,8.60
2013,04,15,12,12,8.60
2013,04,15,12,13,8.60
2013,04,15,12,14,8.60
2013,04,15,12,15,8.70
2013,04,15,12,16,8.70
2013,04,15,12,17,8.70
2013,04,15,12,18,8.70
2013,04,15,12,19,8.70
2013,04,15,12,20,8.70
2013,04,15,12,21,8.70
2013,04,15,12,22,8.70
2013,04,15,12,23,8.80
2013,04,15,12,24,8.90
2013,04,15,12,25,8.90
2013,04,15,12,26,8.90
2013,04,15,12,27,9.00
2013,04,15,12,28,9.00
2013,04,15,12,29,8.90
2013,04,15,12,30,8.90
2013,04,15,12,31,8.90
2013,04,15,12,32,9.00
2013,04,15,12,33,9.00
2013,04,15,12,34,9.00
2013,04,15,12,35,9.10
2013,04,15,12,36,9.20
2013,04,15,12,37,9.20
2013,04,15,12,38,9.20
2013,04,15,12,39,9.30
2013,04,15,12,40,9.40
2013,04,15,12,41,9.50
2013,04,15,12,42,9.60
2013,04,15,12,43,9.70
2013,04,15,12,44,9.80
2013,04,15,12,45,9.80
2013,04,15,12,46,9.80
2013,04,15,12,47,9.80
2013,04,15,12,48,9.80
2013,04,15,12,49,9.90
2013,04,15,12,50,9.90
2013,04,15,12,51,9.80
2013,04,15,12,52,9.70
2013,04,15,12,53,9.70
2013,04,15,12,54,9.60
2013,04,15,12,55,9.60
2013,04,15,12,56,9.60
2013,04,15,12,57,9.60
2013,04,15,12,58,9.70
2013,04,15,12,59,9.70
2013,04,15,13,00,9.80
2013,04,15,13,01,9.80
2013,04,15,13,02,9.80
2013,04,15,13,03,9.90
2013,04,15,13,04,9.90
2013,04,15,13,05,10.00
2013,04,15,13,06,10.10
2013,04,15,13,07,10.10
2013,04,15,13,08,10.10
2013,04,15,13,09,9.90
2013,04,15,13,10,9.90
2013,04,15,13,11,9.90
2013,04,15,13,12,9.90
2013,04,15,13,13,9.90
2013,04,15,13,14,9.90
2013,04,15,13,15,9.90
2013,04,15,13,16,10.00
2013,04,15,13,17,10.10
2013,04,15,13,18,10.00
2013,04,15,13,19,9.90
2013,04,15,13,20,9.90
2013,04,15,13,21,9.90
2013,04,15,13,22,9.90
2013,04,15,13,23,10.00
2013,04,15,13,24,10.20
2013,04,15,13,25,10.30
2013,04,15,13,26,10.30
2013,04,15,13,27,10.40
2013,04,15,13,28,10.30
2013,04,15,13,29,10.20
2013,04,15,13,30,10.00
2013,04,15,13,31,9.90
2013,04,15,13,32,9.90
2013,04,15,13,33,9.90
2013,04,15,13,34,10.00
2013,04,15,13,35,10.10
2013,04,15,13,36,10.10
2013,04,15,13,37,10.00
2013,04,15,13,38,9.90
2013,04,15,13,39,9.80
2013,04,15,13,40,9.50
2013,04,15,13,41,9.40
2013,04,15,13,42,9.20
2013,04,15,13,43,9.20
2013,04,15,13,44,9.10
2013,04,15,13,45,9.00
2013,04,15,13,46,9.00
2013,04,15,13,47,9.00
2013,04,15,13,48,9.00
2013,04,15,13,49,9.00
2013,04,15,13,50,9.00
2013,04,15,13,51,8.90
2013,04,15,13,52,8.90
2013,04,15,13,53,8.80
2013,04,15,13,54,8.70
2013,04,15,13,55,8.80
2013,04,15,13,56,8.80
2013,04,15,13,57,8.70
2013,04,15,13,58,8.80
2013,04,15,13,59,8.80
2013,04,15,14,00,8.80
2013,04,15,14,01,8.80
2013,04,15,14,02,8.70
2013,04,15,14,03,8.80
2013,04,15,14,04,8.80
2013,04,15,14,05,8.70
2013,04,15,14,06,8.70
2013,04,15,14,07,8.70
2013,04,15,14,08,8.70
2013,04,15,14,09,8.60
2013,04,15,14,10,8.70
2013,04,15,14,11,8.70
2013,04,15,14,12,8.70
2013,04,15,14,13,8.70
2013,04,15,14,14,8.70
2013,04,15,14,15,8.70
2013,04,15,14,16,8.70
2013,04,15,14,17,8.70
2013,04,15,14,18,8.70
2013,04,15,14,19,8.70
2013,04,15,14,20,8.80
2013,04,15,14,21,8.90
2013,04,15,14,22,8.90
2013,04,15,14,23,8.90
2013,04,15,14,24,9.00
2013,04,15,14,25,9.00
2013,04,15,14,26,8.90
2013,04,15,14,27,8.90
2013,04,15,14,28,9.00
2013,04,15,14,29,8.80
2013,04,15,14,30,8.70
2013,04,15,14,31,8.70
2013,04,15,14,32,8.70
2013,04,15,14,33,8.70
2013,04,15,14,34,8.80
2013,04,15,14,35,8.70
2013,04,15,14,36,8.80
2013,04,15,14,37,8.70
2013,04,15,14,38,8.70
2013,04,15,14,39,8.70
2013,04,15,14,40,8.70
2013,04,15,14,41,8.70
2013,04,15,14,42,8.70
2013,04,15,14,43,8.70
2013,04,15,14,44,8.70
2013,04,15,14,45,8.70
2013,04,15,14,46,8.80
2013,04,15,14,47,8.80
2013,04,15,14,48,8.80
2013,04,15,14,49,8.80
2013,04,15,14,50,8.80
2013,04,15,14,51,8.70
2013,04,15,14,52,8.70
2013,04,15,14,53,8.70
2013,04,15,14,54,8.70
2013,04,15,14,55,8.80
2013,04,15,14,56,8.90
2013,04,15,14,57,8.90
2013,04,15,14,58,8.90
2013,04,15,14,59,8.90
2013,04,15,15,00,8.90
2013,04,15,15,01,8.90
2013,04,15,15,02,8.80
2013,04,15,15,03,8.80
2013,04,15,15,04,8.90
2013,04,15,15,05,8.90
2013,04,15,15,06,8.90
2013,04,15,15,07,8.90
2013,04,15,15,08,8.90
2013,04,15,15,09,8.80
2013,04,15,15,10,8.80
2013,04,15,15,11,8.80
2013,04,15,15,12,8.80
2013,04,15,15,13,8.90
2013,04,15,15,14,8.90
2013,04,15,15,15,8.90
2013,04,15,15,16,8.90
2013,04,15,15,17,8.90
2013,04,15,15,18,8.90
2013,04,15,15,19,8.90
2013,04,15,15,20,8.80
2013,04,15,15,21,8.90
2013,04,15,15,22,8.80
2013,04,15,15,23,8.80
2013,04,15,15,24,8.90
2013,04,15,15,25,8.90
2013,04,15,15,26,8.90
2013,04,15,15,27,8.90
2013,04,15,15,28,9.00
2013,04,15,15,29,9.00
2013,04,15,15,30,9.10
2013,04,15,15,31,9.20
2013,04,15,15,32,9.20
2013,04,15,15,33,9.30
2013,04,15,15,34,9.30
2013,04,15,15,35,9.40
2013,04,15,15,36,9.40
2013,04,15,15,37,9.30
2013,04,15,15,38,9.30
2013,04,15,15,39,9.30
2013,04,15,15,40,9.30
2013,04,15,15,41,9.40
2013,04,15,15,42,9.40
2013,04,15,15,43,9.40
2013,04,15,15,44,9.40
2013,04,15,15,45,9.40
2013,04,15,15,46,9.40
2013,04,15,15,47,9.50
2013,04,15,15,48,9.50
2013,04,15,15,49,9.50
2013,04,15,15,50,9.40
2013,04,15,15,51,9.30
2013,04,15,15,52,9.30
2013,04,15,15,53,9.40
2013,04,15,15,54,9.50
2013,04,15,15,55,9.50
2013,04,15,15,56,9.70
2013,04,15,15,57,9.70
2013,04,15,15,58,9.70
2013,04,15,15,59,9.80
2013,04,15,16,00,9.80
2013,04,15,16,01,9.90
2013,04,15,16,02,9.90
2013,04,15,16,03,9.90
2013,04,15,16,04,9.90
2013,04,15,16,05,10.00
2013,04,15,16,06,10.10
2013,04,15,16,07,10.10
2013,04,15,16,08,10.10
2013,04,15,16,09,10.10
2013,04,15,16,10,10.20
2013,04,15,16,11,10.20
2013,04,15,16,12,10.20
2013,04,15,16,13,10.30
2013,04,15,16,14,10.30
2013,04,15,16,15,10.40
2013,04,15,16,16,10.40
2013,04,15,16,17,10.50
2013,04,15,16,18,10.60
2013,04,15,16,19,10.60
2013,04,15,16,20,10.60
2013,04,15,16,21,10.60
2013,04,15,16,22,10.60
2013,04,15,16,23,10.70
2013,04,15,16,24,10.80
2013,04,15,16,25,10.80
2013,04,15,16,26,10.80
2013,04,15,16,27,10.70
2013,04,15,16,28,10.70
2013,04,15,16,29,10.60
2013,04,15,16,30,10.60
2013,04,15,16,31,10.60
2013,04,15,16,32,10.60
2013,04,15,16,33,10.60
2013,04,15,16,34,10.60
2013,04,15,16,35,10.60
2013,04,15,16,36,10.60
2013,04,15,16,37,10.60
2013,04,15,16,38,10.50
2013,04,15,16,39,10.40
2013,04,15,16,40,10.50
2013,04,15,16,41,10.60
2013,04,15,16,42,10.60
2013,04,15,16,43,10.60
2013,04,15,16,44,10.60
2013,04,15,16,45,10.70
2013,04,15,16,46,10.70
2013,04,15,16,47,10.70
2013,04,15,16,48,10.60
2013,04,15,16,49,10.60
2013,04,15,16,50,10.60
2013,04,15,16,51,10.60
2013,04,15,16,52,10.60
2013,04,15,16,53,10.60
2013,04,15,16,54,10.60
2013,04,15,16,55,10.60
2013,04,15,16,56,10.60
2013,04,15,16,57,10.60
2013,04,15,16,58,10.50
2013,04,15,16,59,10.50
2013,04,15,17,00,10.60
2013,04,15,17,01,10.60
2013,04,15,17,02,10.60
2013,04,15,17,03,10.60
2013,04,15,17,04,10.70
2013,04,15,17,05,10.80
2013,04,15,17,06,10.80
2013,04,15,17,07,10.90
2013,04,15,17,08,10.90
2013,04,15,17,09,10.90
2013,04,15,17,10,10.70
2013,04,15,17,11,10.70
2013,04,15,17,12,10.70
2013,04,15,17,13,10.60
2013,04,15,17,14,10.60
2013,04,15,17,15,10.60
2013,04,15,17,16,10.60
2013,04,15,17,17,10.60
2013,04,15,17,18,10.60
2013,04,15,17,19,10.60
2013,04,15,17,20,10.70
2013,04,15,17,21,10.90
2013,04,15,17,22,10.90
2013,04,15,17,23,10.80
2013,04,15,17,24,10.70
2013,04,15,17,25,10.60
2013,04,15,17,26,10.60
2013,04,15,17,27,10.50
2013,04,15,17,28,10.40
2013,04,15,17,29,10.50
2013,04,15,17,30,10.60
2013,04,15,17,31,10.70
2013,04,15,17,32,10.80
2013,04,15,17,33,10.90
2013,04,15,17,34,10.90
2013,04,15,17,35,10.90
2013,04,15,17,36,10.90
2013,04,15,17,37,10.90
2013,04,15,17,38,10.90
2013,04,15,17,39,10.90
2013,04,15,17,40,10.90
2013,04,15,17,41,10.90
2013,04,15,17,42,11.00
2013,04,15,17,43,11.10
2013,04,15,17,44,11.20
2013,04,15,17,45,11.20
2013,04,15,17,46,11.30
2013,04,15,17,47,11.30
2013,04,15,17,48,11.30
2013,04,15,17,49,11.30
2013,04,15,17,50,11.30
2013,04,15,17,51,11.30
2013,04,15,17,52,11.30
2013,04,15,17,53,11.20
2013,04,15,17,54,11.20
2013,04,15,17,55,11.20
2013,04,15,17,56,11.10
2013,04,15,17,57,11.00
2013,04,15,17,58,10.90
2013,04,15,17,59,10.80
2013,04,15,18,00,10.80